When you browse on this site, cookies collect data to enhance your experience and personalize the content and advertising you see.
Visit our Privacy Policy to learn more. By continuing to use the site, you agree to this use of cookies and data.
  • In Latvia
  • List of Countries
  • For 7 days
  • Water Temperature
  • Weather Map
  • Weather Widgets
  • user-avatar
    Login

    Hourly Weather Idzhewan

    Today, 2 April, Thursday

    Time Temperature Precipitation Wind Pressure Humidity
    00:00 +10°C° 0.3 mm 0 mps 685 mmHg 91%
    01:00 +10°C° 0.3 mm 1 mps 685 mmHg 93%
    02:00 +10°C° 0.3 mm 1 mps 685 mmHg 94%
    03:00 +10°C° 0 mm 1 mps 685 mmHg 94%
    04:00 +8°C° 0.6 mm 2 mps 685 mmHg 95%
    05:00 +8°C° 0.6 mm 2 mps 685 mmHg 96%
    06:00 +8°C° 0.6 mm 2 mps 685 mmHg 97%
    07:00 +7°C° 1.4 mm 2 mps 686 mmHg 96%
    08:00 +7°C° 1.4 mm 2 mps 686 mmHg 94%
    09:00 +7°C° 0 mm 2 mps 686 mmHg 92%
    10:00 +9°C° 0.3 mm 1 mps 687 mmHg 88%
    11:00 +10°C° 0.3 mm 1 mps 687 mmHg 85%
    12:00 +11°C° 0.3 mm 1 mps 687 mmHg 81%
    13:00 +11°C° 0.1 mm 1 mps 687 mmHg 80%
    14:00 +11°C° 0.1 mm 1 mps 687 mmHg 79%
    15:00 +12°C° 0.1 mm 1 mps 687 mmHg 78%
    16:00 +11°C° 0 mm 1 mps 687 mmHg 80%
    17:00 +11°C° 0 mm 1 mps 687 mmHg 81%
    18:00 +10°C° 0 mm 1 mps 687 mmHg 82%
    19:00 +10°C° 0 mm 1 mps 687 mmHg 83%
    20:00 +9°C° 0 mm 1 mps 688 mmHg 84%
    21:00 +7°C° 0 mm 0 mps 688 mmHg 85%
    22:00 +7°C° 0 mm 0 mps 689 mmHg 84%
    23:00 +7°C° 0 mm 0 mps 689 mmHg 84%

    Tomorrow, 3 April, Friday

    Time Temperature Precipitation Wind Pressure Humidity
    00:00 +8°C° 0 mm 1 mps 689 mmHg 84%
    01:00 +7°C° 0 mm 1 mps 689 mmHg 84%
    02:00 +7°C° 0 mm 1 mps 689 mmHg 83%
    03:00 +7°C° 0 mm 1 mps 689 mmHg 83%
    04:00 +7°C° 0 mm 1 mps 689 mmHg 83%
    05:00 +7°C° 0 mm 1 mps 689 mmHg 83%
    06:00 +7°C° 0 mm 1 mps 689 mmHg 82%
    07:00 +9°C° 0 mm 1 mps 690 mmHg 77%
    08:00 +10°C° 0 mm 1 mps 690 mmHg 72%
    09:00 +12°C° 0 mm 2 mps 690 mmHg 66%
    10:00 +13°C° 0 mm 2 mps 690 mmHg 65%
    11:00 +14°C° 0 mm 2 mps 690 mmHg 64%
    12:00 +14°C° 0 mm 2 mps 689 mmHg 62%
    13:00 +14°C° 0.2 mm 2 mps 689 mmHg 62%
    14:00 +15°C° 0.2 mm 2 mps 689 mmHg 62%
    15:00 +15°C° 0.2 mm 2 mps 689 mmHg 62%
    16:00 +14°C° 0.2 mm 2 mps 688 mmHg 68%
    17:00 +13°C° 0.2 mm 2 mps 688 mmHg 75%
    18:00 +12°C° 0.2 mm 2 mps 688 mmHg 81%
    19:00 +11°C° 0 mm 1 mps 689 mmHg 84%
    20:00 +11°C° 0 mm 1 mps 689 mmHg 88%
    21:00 +9°C° 0 mm 0 mps 690 mmHg 91%
    22:00 +9°C° 0 mm 0 mps 690 mmHg 92%
    23:00 +9°C° 0 mm 0 mps 690 mmHg 94%

    Day after tomorrow, 4 April, Saturday

    Time Temperature Precipitation Wind Pressure Humidity
    00:00 +10°C° 0 mm 1 mps 690 mmHg 95%
    01:00 +10°C° 1.2 mm 1 mps 690 mmHg 96%
    02:00 +9°C° 1.2 mm 1 mps 690 mmHg 97%
    03:00 +9°C° 1.2 mm 1 mps 690 mmHg 97%
    04:00 +9°C° 0.6 mm 1 mps 690 mmHg 97%
    05:00 +9°C° 0.6 mm 1 mps 690 mmHg 97%
    06:00 +8°C° 0.6 mm 0 mps 691 mmHg 97%
    07:00 +9°C° 1.3 mm 1 mps 691 mmHg 97%
    08:00 +9°C° 1.3 mm 1 mps 691 mmHg 97%
    09:00 +9°C° 1.3 mm 1 mps 691 mmHg 97%
    10:00 +8°C° 2 mm 1 mps 691 mmHg 96%
    11:00 +8°C° 2 mm 1 mps 692 mmHg 95%
    12:00 +8°C° 2 mm 1 mps 692 mmHg 94%
    13:00 +9°C° 0.1 mm 1 mps 692 mmHg 92%
    14:00 +9°C° 0.1 mm 1 mps 692 mmHg 90%
    15:00 +10°C° 0.1 mm 1 mps 692 mmHg 87%
    16:00 +10°C° 0.1 mm 1 mps 692 mmHg 90%
    17:00 +10°C° 0.1 mm 1 mps 693 mmHg 92%
    18:00 +9°C° 0.1 mm 1 mps 693 mmHg 95%
    19:00 +9°C° 0 mm 1 mps 694 mmHg 93%
    20:00 +9°C° 0 mm 1 mps 694 mmHg 92%
    21:00 +9°C° 0 mm 1 mps 695 mmHg 91%
    22:00 +9°C° 0 mm 1 mps 695 mmHg 89%
    23:00 +8°C° 0 mm 1 mps 695 mmHg 88%

    5 April, Sunday

    Time Temperature Precipitation Wind Pressure Humidity
    00:00 +8°C° 0 mm 1 mps 696 mmHg 87%
    01:00 +7°C° 0 mm 1 mps 695 mmHg 86%
    02:00 +7°C° 0 mm 1 mps 695 mmHg 84%
    03:00 +7°C° 0 mm 1 mps 695 mmHg 83%
    04:00 +7°C° 0 mm 1 mps 695 mmHg 81%
    05:00 +7°C° 0 mm 1 mps 695 mmHg 80%
    06:00 +7°C° 0 mm 1 mps 696 mmHg 78%
    07:00 +9°C° 0 mm 1 mps 696 mmHg 75%
    08:00 +10°C° 0 mm 1 mps 695 mmHg 72%
    09:00 +12°C° 0 mm 1 mps 695 mmHg 69%
    10:00 +13°C° 0 mm 1 mps 695 mmHg 67%
    11:00 +14°C° 0 mm 1 mps 695 mmHg 65%
    12:00 +15°C° 0 mm 2 mps 695 mmHg 64%
    13:00 +15°C° 0 mm 2 mps 695 mmHg 65%
    14:00 +15°C° 0 mm 2 mps 694 mmHg 66%
    15:00 +15°C° 0 mm 2 mps 694 mmHg 68%
    16:00 +14°C° 0 mm 1 mps 693 mmHg 73%
    17:00 +14°C° 0 mm 1 mps 693 mmHg 79%
    18:00 +13°C° 0 mm 1 mps 693 mmHg 84%
    19:00 +12°C° 0 mm 1 mps 693 mmHg 84%
    20:00 +11°C° 0 mm 1 mps 693 mmHg 84%
    21:00 +11°C° 0 mm 1 mps 693 mmHg 84%
    22:00 +11°C° 0 mm 1 mps 693 mmHg 83%
    23:00 +10°C° 0 mm 0 mps 693 mmHg 82%

    6 April, Monday

    Time Temperature Precipitation Wind Pressure Humidity
    00:00 +10°C° 0 mm 0 mps 693 mmHg 80%
    01:00 +10°C° 0.1 mm 0 mps 693 mmHg 82%
    02:00 +10°C° 0.1 mm 0 mps 693 mmHg 85%
    03:00 +10°C° 0.1 mm 0 mps 692 mmHg 87%
    04:00 +9°C° 0.7 mm 0 mps 692 mmHg 90%
    05:00 +9°C° 0.7 mm 0 mps 692 mmHg 93%
    06:00 +10°C° 0.7 mm 1 mps 692 mmHg 95%
    07:00 +10°C° 0.9 mm 1 mps 692 mmHg 95%
    08:00 +10°C° 0.9 mm 1 mps 692 mmHg 95%
    09:00 +10°C° 0.9 mm 1 mps 692 mmHg 95%
    10:00 +10°C° 0.5 mm 1 mps 692 mmHg 95%
    11:00 +10°C° 0.5 mm 1 mps 692 mmHg 94%
    12:00 +10°C° 0.5 mm 1 mps 692 mmHg 94%
    13:00 +10°C° 0.9 mm 1 mps 692 mmHg 94%
    14:00 +10°C° 0.9 mm 1 mps 691 mmHg 95%
    15:00 +9°C° 0.9 mm 1 mps 691 mmHg 96%
    16:00 +9°C° 1.4 mm 1 mps 691 mmHg 95%
    17:00 +9°C° 1.4 mm 1 mps 691 mmHg 95%
    18:00 +8°C° 1.4 mm 1 mps 691 mmHg 95%
    19:00 +8°C° 1.1 mm 1 mps 692 mmHg 95%
    20:00 +8°C° 1.1 mm 1 mps 692 mmHg 95%
    21:00 +8°C° 1.1 mm 1 mps 693 mmHg 94%
    22:00 +7°C° 0.7 mm 1 mps 693 mmHg 92%
    23:00 +6°C° 0.7 mm 2 mps 694 mmHg 90%

    7 April, Tuesday

    Time Temperature Precipitation Wind Pressure Humidity
    00:00 +5°C° 0.7 mm 2 mps 694 mmHg 88%
    01:00 +4°C° 0.3 mm 2 mps 695 mmHg 86%
    02:00 +3°C° 0.3 mm 2 mps 695 mmHg 84%
    03:00 +3°C° 0.3 mm 1 mps 696 mmHg 82%
    04:00 +3°C° 0 mm 1 mps 696 mmHg 84%
    05:00 +2°C° 0 mm 1 mps 697 mmHg 86%
    06:00 +1°C° 0 mm 1 mps 698 mmHg 89%
    07:00 +2°C° 0.1 mm 1 mps 698 mmHg 86%
    08:00 +2°C° 0.1 mm 2 mps 699 mmHg 84%
    09:00 +2°C° 0.1 mm 2 mps 699 mmHg 82%
    10:00 +3°C° 0.1 mm 2 mps 699 mmHg 82%
    11:00 +3°C° 0.1 mm 2 mps 699 mmHg 83%
    12:00 +4°C° 0.1 mm 2 mps 699 mmHg 83%
    13:00 +4°C° 0 mm 2 mps 699 mmHg 79%
    14:00 +5°C° 0 mm 2 mps 699 mmHg 76%
    15:00 +5°C° 0 mm 2 mps 699 mmHg 72%
    16:00 +5°C° 0 mm 2 mps 699 mmHg 76%
    17:00 +4°C° 0 mm 2 mps 699 mmHg 81%
    18:00 +3°C° 0 mm 2 mps 699 mmHg 86%
    19:00 +3°C° 0 mm 2 mps 700 mmHg 88%
    20:00 +3°C° 0 mm 1 mps 701 mmHg 91%
    21:00 +2°C° 0 mm 1 mps 702 mmHg 94%
    22:00 +2°C° 0 mm 1 mps 702 mmHg 92%
    23:00 +2°C° 0 mm 1 mps 702 mmHg 91%
    Show more